Regional Weather Roundup
Issued by NWS

Home | Current Version | Previous Version | Graphics & Text | Print | Product List | Glossary Off
Versions: 1 2 3 4 5 6 7 8 9 10 11 12 13 14 15 16 17 18 19 20 21 22 23 24 25 26 27 28 29 30 31 32 33 34 35 36 37 38 39 40 41 42 43 44 45 46 47 48 49 50

000
ASUS43 KTOP 190008
RWRKS

WEATHER ROUNDUP FOR KANSAS
NATIONAL WEATHER SERVICE GOODLAND KS
600 PM CST SAT NOV 18 2017

NOTE:  "FAIR" INDICATES FEW OR NO CLOUDS BELOW 12,000 FEET WITH NO
SIGNIFICANT WEATHER AND/OR OBSTRUCTIONS TO VISIBILITY.

KSZ001>006-013>018-027>032-041>047-190100-
NORTHWEST KANSAS

CITY           SKY/WX    TMP DP  RH WIND       PRES   REMARKS
GOODLAND       CLEAR     34  14  43 NW8       30.22S
6HR MIN TEMP:  34; 6HR MAX TEMP:  47;

HAYS           CLEAR     43  21  41 NW7       30.22R
HILL CITY      CLEAR     42  21  43 NW7       30.23R
6HR MIN TEMP:  42; 6HR MAX TEMP:  52;

RUSSELL        CLEAR     41  23  48 NW8       30.20R
6HR MIN TEMP:  41; 6HR MAX TEMP:  54; 6HR PCP: TRACE;

$$

KSZ061>065-074>080-084>089-190100-
SOUTHWEST KANSAS

CITY           SKY/WX    TMP DP  RH WIND       PRES   REMARKS
DODGE CITY     CLEAR     40  17  39 NW8       30.25R
6HR MIN TEMP:  40; 6HR MAX TEMP:  53; 6HR PCP: TRACE;

ELKHART        CLEAR     46  20  35 CALM      30.28R
GARDEN CITY    CLEAR     36  15  42 N7        30.26R
6HR MIN TEMP:  36; 6HR MAX TEMP:  52;

GREAT BEND     CLEAR     41  24  51 NW6       30.22R
LIBERAL        CLEAR     40  13  33 N7        30.28R
PRATT          CLEAR     42  21  43 NW8       30.23R
6HR MIN TEMP:  42; 6HR MAX TEMP:  53;

$$

KSZ066>073-081>083-090>101-190100-
SOUTHEAST KANSAS

CITY           SKY/WX    TMP DP  RH WIND       PRES   REMARKS
CHANUTE        CLEAR     48  30  49 N8        30.12R
6HR MIN TEMP:  47; 6HR MAX TEMP:  54;

COFFEYVILLE    CLEAR     47  33  58 N6        30.14R
6HR MIN TEMP:  47; 6HR MAX TEMP:  56; 6HR PCP: TRACE;

HUTCHINSON     CLEAR     46  24  42 NW10      30.19R
6HR MIN TEMP:  46; 6HR MAX TEMP:  57;

MEDICINE LODGE   N/A     46  22  38 NW9       30.22R
NEWTON         CLEAR     46  24  42 NW10      30.18R
PARSONS        CLEAR     45  33  63 N5        30.14R
6HR MIN TEMP:  45; 6HR MAX TEMP:  55; 6HR PCP: TRACE;

WICHITA INTL   PTCLDY    48  24  39 NW9       30.18R
6HR MIN TEMP:  48; 6HR MAX TEMP:  56;

WICHITA JABRA  CLEAR     46  25  43 NW8       30.17R
6HR MIN TEMP:  46; 6HR MAX TEMP:  57;

WICHITA MCCONL CLEAR     49  22  35 N10       30.17R
WINFIELD       CLEAR     48  26  42 NW9       30.19R
6HR MIN TEMP:  45; 6HR MAX TEMP:  57;

$$

KSZ007>012-019>026-033>040-048>060-102>105-190100-
NORTHEAST KANSAS

CITY           SKY/WX    TMP DP  RH WIND       PRES   REMARKS
CONCORDIA      CLEAR     44  25  47 NW9       30.17R
6HR MIN TEMP:  44; 6HR MAX TEMP:  53;

EMPORIA        CLEAR     47  26  44 NW10      30.14R
6HR MIN TEMP:  46; 6HR MAX TEMP:  54;

LAWRENCE       CLEAR     48  30  49 NW14      30.10R
6HR MIN TEMP:  47; 6HR MAX TEMP:  54;

MANHATTAN      CLEAR     48  27  44 VRB5      30.15R
6HR MIN TEMP:  48; 6HR MAX TEMP:  56;

MARYSVILLE     CLEAR     41  28  60 NW9       30.14R
OLATHE IND     CLEAR     46  31  55 NW10      30.09R
6HR MIN TEMP:  44; 6HR MAX TEMP:  50; 6HR PCP: TRACE;

OLATHE EXE     CLEAR     46  30  53 NW15      30.07R
6HR MIN TEMP:  43; 6HR MAX TEMP:  50; 6HR PCP: TRACE;

SALINA         CLEAR     48  24  39 NW9       30.19R
6HR MIN TEMP:  48; 6HR MAX TEMP:  57;

TOPEKA BILLARD CLEAR     48  30  49 NW12      30.12R
6HR MIN TEMP:  48; 6HR MAX TEMP:  55;

TOPEKA FORBES  CLEAR     47  30  51 NW13      30.12R
6HR MIN TEMP:  47; 6HR MAX TEMP:  56;

$$




USA.gov is the U.S. government's official web portal to all federal, state and local government web resources and services.